GW3101 Weather Reports


time (UTC)temp
F
wind
direction
speed
knots
gust
knots
rain 1hr
in
rain 24hr
in
rain mn
in
humidity
%
barometer
mb
20260507095844 47 27 0.0 0.0 0.00 0.16 0.16 99 1007.1
20260507095340 47 345 0.0 0.0 0.00 0.16 0.16 99 1007.5
20260507094838 47 269 0.0 0.0 0.00 0.16 0.16 99 1007.5
20260507094334 47 24 0.0 0.0 0.07 0.16 0.16 99 1007.2
20260507093831 47 34 0.0 0.0 0.07 0.16 0.16 99 1007.0
20260507093329 47 100 0.0 0.0 0.00 0.15 0.15 99 1007.0
20260507092827 47 341 0.0 0.0 0.00 0.15 0.15 99 1006.9
20260507092323 47 342 0.0 0.0 0.00 0.15 0.15 99 1007.2
20260507091820 47 199 0.0 0.0 0.00 0.15 0.15 99 1007.1
20260507091316 47 335 0.9 0.9 0.00 0.15 0.15 99 1006.8
20260507090811 47 16 0.0 0.0 0.00 0.15 0.15 99 1006.9
20260507090308 47 12 0.0 0.0 0.05 0.15 0.15 99 1007.0
20260507085805 47 77 0.0 0.0 0.12 0.15 0.15 99 1007.0
20260507085306 47 27 0.0 0.0 0.07 0.14 0.14 99 1007.2
20260507084800 47 79 0.9 1.7 0.00 0.13 0.13 99 1007.3
20260507084255 47 34 0.9 1.7 0.05 0.13 0.13 99 1007.1
20260507083753 47 357 0.9 1.7 0.05 0.13 0.13 99 1006.8
20260507083250 47 345 1.7 2.6 0.12 0.12 0.12 99 1006.6
20260507082746 47 4 0.0 0.0 0.19 0.12 0.12 99 1007.3
20260507082242 47 334 0.0 0.9 0.12 0.10 0.10 99 1007.4
20260507081739 47 312 0.0 0.0 0.19 0.09 0.09 99 1007.4
20260507081234 47 304 0.0 0.0 0.19 0.08 0.08 99 1007.4
20260507080731 48 6 0.0 0.0 0.12 0.06 0.06 99 1007.1
20260507080228 48 93 0.0 0.0 0.07 0.05 0.05 99 1007.4
20260507075723 48 302 0.0 0.0 0.00 0.04 0.04 99 1007.4
20260507075219 48 335 0.0 0.0 0.05 0.04 0.04 99 1007.5
20260507074716 48 325 0.0 0.0 0.05 0.04 0.04 99 1007.6
20260507074214 48 276 0.9 1.7 0.00 0.03 0.03 99 1007.6
20260507073711 48 352 0.0 0.0 0.07 0.03 0.03 99 1007.4
20260507073207 48 21 0.0 0.0 0.07 0.03 0.03 99 1007.3
20260507072705 48 29 0.0 0.0 0.00 0.02 0.02 99 1007.4
20260507072202 48 174 0.9 1.7 0.00 0.02 0.02 99 1007.3
20260507071659 48 255 0.0 0.9 0.00 0.02 0.02 99 1007.3
20260507071155 48 138 0.9 0.9 0.05 0.02 0.02 99 1006.9
20260507070653 48 12 0.0 0.0 0.05 0.02 0.02 99 1007.3
20260507070149 48 330 2.6 4.3 0.00 0.01 0.01 99 1006.9
20260507065646 48 320 0.9 0.9 0.00 0.01 0.01 99 1007.0
20260507065143 48 320 0.9 0.9 0.00 0.01 0.01 99 1006.9
20260507064640 49 335 0.9 0.9 0.00 0.01 0.01 99 1006.7
20260507064139 49 334 0.0 0.0 0.00 0.01 0.01 99 1006.4
20260507063636 49 46 0.0 0.0 0.00 0.01 0.01 99 1006.0
20260507063133 49 72 0.0 0.0 0.00 0.01 0.01 99 1006.1
20260507062629 49 1 0.0 0.0 0.00 0.01 0.01 99 1006.0
20260507062127 49 344 0.0 0.0 0.00 0.01 0.01 99 1006.1
20260507061625 49 1 1.7 1.7 0.00 0.01 0.01 99 1006.3
20260507061123 49 308 0.0 0.0 0.00 0.01 0.01 99 1006.6
20260507060621 49 332 0.9 0.9 0.00 0.01 0.01 99 1006.8
20260507060117 49 353 1.7 1.7 0.00 0.01 0.01 99 1006.5
20260507055612 49 355 1.7 4.3 0.00 0.01 0.01 99 1006.7
20260507055108 50 305 0.9 0.9 0.00 0.01 0.01 99 1006.7
20260507054604 50 336 0.9 0.9 0.00 0.01 0.01 99 1006.6
20260507054102 50 341 0.0 0.0 0.00 0.01 0.01 99 1006.6
20260507053559 50 5 0.0 0.0 0.00 0.01 0.01 99 1006.5
20260507053058 50 325 0.0 0.0 0.00 0.01 0.01 99 1006.8
20260507052556 50 8 0.0 0.0 0.00 0.01 0.01 99 1006.8
20260507052052 50 351 0.9 0.9 0.00 0.01 0.01 99 1007.1
20260507051549 51 315 0.0 0.0 0.00 0.01 0.01 99 1007.0
20260507051046 51 10 0.0 0.0 0.00 0.01 0.01 99 1007.0
20260507050543 51 347 0.9 0.9 0.00 0.01 0.01 99 1007.1
20260507050039 51 330 0.9 0.9 0.00 0.01 0.01 99 1007.2
20260507045536 51 342 0.0 0.0 0.00 0.01 0.01 99 1007.2
20260507045033 52 177 0.9 0.9 0.00 0.01 0.01 99 1007.1
20260507044530 52 3 0.9 1.7 0.00 0.01 0.01 99 1006.8
20260507044027 52 10 0.0 0.9 0.07 0.01 0.01 99 1006.8
20260507043523 52 257 0.0 0.0 0.07 0.01 0.01 99 1007.1
20260507043020 52 319 0.0 0.0 0.00 0.00 0.00 99 1007.0
20260507042516 52 281 0.0 0.0 0.00 0.00 0.00 99 1006.8
20260507042011 52 340 0.0 0.0 0.00 0.00 0.00 99 1007.0
20260507041509 52 5 0.0 0.9 0.00 0.00 0.00 99 1007.1
20260507041006 52 292 0.0 0.9 0.05 0.00 0.00 99 1007.5
20260507040502 52 356 0.0 0.9 0.05 0.00 0.00 99 1007.0
20260507035957 52 332 0.0 0.0 0.00 0.44 0.44 99 1007.2
20260507035454 53 275 0.0 0.0 0.00 0.44 0.44 99 1007.1
20260507034951 53 308 0.0 0.0 0.00 0.44 0.44 99 1007.0
20260507034448 53 328 0.9 0.9 0.00 0.44 0.44 99 1007.0
20260507033946 53 316 0.0 0.9 0.00 0.44 0.44 99 1007.1
20260507033443 53 328 0.0 0.0 0.00 0.44 0.44 99 1007.0
20260507032940 53 325 0.9 0.9 0.00 0.44 0.44 99 1007.3
20260507032437 54 323 0.9 0.9 0.00 0.44 0.44 99 1007.5
20260507031933 54 26 0.9 0.9 0.07 0.44 0.44 99 1007.5
20260507031430 54 327 0.9 0.9 0.19 0.44 0.44 99 1007.4
20260507030927 54 164 0.0 0.9 0.24 0.43 0.43 99 1007.1
20260507030424 55 310 0.9 0.9 0.19 0.41 0.41 99 1007.2
20260507025921 55 332 0.0 0.0 0.07 0.39 0.39 99 1007.1
20260507025418 55 309 0.0 0.9 0.00 0.38 0.38 99 1006.9
20260507024916 56 187 0.9 0.9 0.05 0.38 0.38 99 1007.0
20260507024413 57 358 3.5 5.2 0.12 0.38 0.38 99 1007.1
20260507023909 57 314 0.9 0.9 0.07 0.37 0.37 99 1007.0
20260507023406 57 20 1.7 1.7 0.00 0.36 0.36 99 1006.7
20260507022903 57 209 0.0 0.0 0.00 0.36 0.36 99 1006.6
20260507022400 57 192 0.9 1.7 0.00 0.36 0.36 99 1006.5
20260507021856 57 48 0.0 0.9 0.00 0.36 0.36 99 1006.5
20260507021351 57 300 0.0 0.9 0.00 0.36 0.36 99 1006.7
20260507020849 57 307 0.0 0.9 0.00 0.36 0.36 99 1006.5
20260507020345 57 213 0.0 1.7 0.00 0.36 0.36 99 1006.6
20260507015842 57 156 0.0 0.0 0.00 0.36 0.36 99 1006.3
20260507015340 57 163 0.0 0.0 0.00 0.36 0.36 99 1006.5
20260507014837 57 222 0.9 0.9 0.00 0.36 0.36 99 1006.7
20260507014333 57 353 0.0 0.0 0.00 0.36 0.36 99 1006.8
20260507013830 57 262 0.9 1.7 0.00 0.36 0.36 99 1006.6
20260507013327 57 228 0.0 0.0 0.00 0.36 0.36 99 1006.7
20260507012825 57 61 2.6 4.3 0.00 0.36 0.36 99 1006.6
20260507012320 57 277 0.0 0.0 0.00 0.36 0.36 99 1006.6
20260507011818 57 304 0.0 0.0 0.00 0.36 0.36 99 1006.5
20260507011314 57 196 0.0 0.0 0.00 0.36 0.36 99 1006.5
20260507010814 57 178 0.0 0.0 0.00 0.36 0.36 99 1006.3
20260507010310 57 187 0.0 0.9 0.00 0.36 0.36 99 1006.2
20260507005807 56 182 0.0 0.0 0.00 0.36 0.36 99 1006.2
20260507005305 56 130 0.0 0.0 0.00 0.36 0.36 99 1006.5
20260507004801 56 244 1.7 2.6 0.00 0.36 0.36 99 1006.5
20260507004258 56 173 0.9 0.9 0.00 0.36 0.36 99 1006.7
20260507003754 56 164 1.7 4.3 0.00 0.36 0.36 99 1006.5
20260507003249 56 226 2.6 4.3 0.00 0.36 0.36 99 1006.9
20260507002746 56 303 1.7 1.7 0.00 0.36 0.36 99 1006.7
20260507002242 56 198 0.9 1.7 0.00 0.36 0.36 99 1006.8
20260507001739 56 168 0.9 0.9 0.05 0.36 0.36 99 1006.7
20260507001236 56 332 0.9 0.9 0.05 0.36 0.36 99 1006.8
20260507000732 56 158 0.0 0.9 0.00 0.35 0.35 99 1006.8
20260507000228 56 235 2.6 4.3 0.00 0.35 0.35 99 1006.4
20260506235725 57 195 4.3 5.2 0.00 0.35 0.35 99 1006.4
20260506235221 57 221 0.0 0.9 0.00 0.35 0.35 99 1006.4
20260506234718 57 170 3.5 4.3 0.00 0.35 0.35 99 1006.3
20260506234215 57 136 0.0 0.9 0.00 0.35 0.35 99 1006.5
20260506233713 57 131 0.0 0.0 0.00 0.35 0.35 99 1006.3
20260506233209 57 189 0.0 0.9 0.00 0.35 0.35 99 1006.1
20260506232706 57 134 0.0 0.0 0.00 0.35 0.35 99 1006.1
20260506232200 57 161 0.0 0.0 0.00 0.35 0.35 99 1006.2
20260506231658 57 195 2.6 5.2 0.00 0.35 0.35 99 1006.1
20260506231156 57 299 0.9 0.9 0.00 0.35 0.35 99 1005.9
20260506230653 57 199 0.9 0.9 0.00 0.35 0.35 99 1006.1
20260506230149 57 169 1.7 1.7 0.00 0.35 0.35 99 1006.3
20260506225646 57 162 6.1 6.1 0.07 0.35 0.35 99 1006.2
20260506225143 57 176 0.0 0.0 0.12 0.35 0.35 99 1006.0
20260506224639 57 234 0.0 0.0 0.05 0.34 0.34 99 1006.1
20260506224136 57 133 0.0 0.0 0.00 0.33 0.33 99 1006.0
20260506223632 57 265 1.7 1.7 0.07 0.33 0.33 99 1005.8
20260506223128 57 171 0.9 1.7 0.19 0.33 0.33 99 1006.3
20260506222626 57 145 0.0 0.9 0.17 0.32 0.32 99 1006.2
20260506222122 57 218 0.9 0.9 0.05 0.30 0.30 99 1006.0
20260506221620 57 175 0.9 0.9 0.00 0.29 0.29 99 1006.1
20260506221117 57 198 0.9 1.7 0.00 0.29 0.29 99 1006.0
20260506220614 57 155 0.9 0.9 0.00 0.29 0.29 99 1006.1
20260506220109 57 228 0.0 0.0 0.07 0.29 0.29 99 1006.0
20260506215606 57 278 1.7 1.7 0.07 0.29 0.29 99 1006.2
20260506215101 57 253 0.9 1.7 0.00 0.28 0.28 99 1006.0
20260506214559 57 226 2.6 4.3 0.00 0.28 0.28 99 1006.0
20260506214056 57 172 4.3 5.2 0.00 0.28 0.28 99 1006.1
20260506213554 57 44 0.9 1.7 0.00 0.28 0.28 99 1006.2
20260506213051 57 177 0.9 1.7 0.05 0.28 0.28 99 1006.3
20260506212548 57 197 0.0 0.0 0.05 0.28 0.28 99 1006.0
20260506212042 57 182 3.5 4.3 0.07 0.27 0.27 99 1006.2
20260506211539 57 190 1.7 1.7 0.14 0.27 0.27 99 1006.3
20260506211036 57 142 2.6 2.6 0.12 0.26 0.26 99 1006.3
20260506210532 57 139 1.7 1.7 0.17 0.25 0.25 99 1006.4
20260506210029 57 277 0.9 0.9 0.19 0.24 0.24 99 1006.3
20260506205526 57 181 2.6 4.3 0.12 0.22 0.22 99 1006.8
20260506205021 57 167 1.7 1.7 0.12 0.21 0.21 99 1006.7
20260506204520 57 151 0.0 0.0 0.07 0.20 0.20 99 1006.7
20260506204016 57 148 0.9 0.9 0.00 0.19 0.19 99 1006.8
20260506203515 57 179 0.9 1.7 0.05 0.19 0.19 99 1006.7
20260506203011 57 173 0.0 0.0 0.12 0.19 0.19 99 1006.6
20260506202508 57 182 1.7 1.7 0.12 0.18 0.18 99 1006.9
20260506202004 57 225 1.7 1.7 0.12 0.17 0.17 99 1006.7
20260506201502 57 171 4.3 5.2 0.07 0.16 0.16 99 1006.8
20260506200958 57 150 3.5 5.2 0.05 0.15 0.15 99 1006.7
20260506200454 57 192 2.6 2.6 0.05 0.15 0.15 99 1006.9
20260506195951 57 154 1.7 2.6 0.07 0.14 0.14 99 1007.0
20260506195448 57 154 2.6 4.3 0.07 0.14 0.14 99 1007.2
20260506194944 57 138 3.5 6.1 0.00 0.13 0.13 99 1007.1
20260506194442 57 283 2.6 5.2 0.00 0.13 0.13 99 1007.1
20260506193933 57 186 4.3 5.2 0.00 0.13 0.13 99 1007.4
20260506193430 57 217 2.6 2.6 0.00 0.13 0.13 99 1007.6
20260506192927 57 116 0.9 0.9 0.00 0.13 0.13 99 1007.4
20260506192424 57 173 0.9 0.9 0.07 0.13 0.13 99 1007.4
20260506191920 57 117 0.9 1.7 0.07 0.13 0.13 99 1007.3
20260506191417 57 142 2.6 2.6 0.00 0.12 0.12 99 1007.2
20260506190914 57 225 1.7 1.7 0.00 0.12 0.12 99 1007.6
20260506190410 57 202 2.6 4.3 0.05 0.12 0.12 98 1007.5
20260506185907 57 148 0.0 0.0 0.05 0.12 0.12 98 1007.7
20260506185404 57 229 0.9 1.7 0.07 0.11 0.11 98 1007.5
20260506184902 58 232 0.0 0.0 0.07 0.11 0.11 98 1007.6
20260506184358 58 279 1.7 2.6 0.05 0.10 0.10 98 1007.6
20260506183856 58 205 2.6 2.6 0.12 0.10 0.10 97 1007.6
20260506183350 58 170 1.7 1.7 0.12 0.09 0.09 97 1007.3
20260506182848 59 167 4.3 6.1 0.19 0.09 0.09 96 1007.6
20260506182345 59 165 2.6 4.3 0.17 0.08 0.08 96 1007.6
20260506181843 59 152 3.5 5.2 0.12 0.06 0.06 95 1007.8
20260506181341 59 286 0.9 0.9 0.12 0.05 0.05 94 1007.9
20260506180837 60 173 0.0 0.0 0.12 0.04 0.04 94 1007.9
20260506180333 60 243 0.9 0.9 0.14 0.03 0.03 93 1008.3
20260506175830 60 183 0.0 0.0 0.07 0.02 0.02 92 1008.0
20260506175327 60 253 0.9 0.9 0.00 0.01 0.01 91 1008.2
20260506174824 61 154 0.0 0.9 0.05 0.01 0.01 91 1008.4
20260506174321 61 147 0.0 0.0 0.05 0.01 0.01 89 1008.4
20260506173819 61 270 1.7 4.3 0.00 0.00 0.00 88 1008.3
20260506173315 62 195 0.9 0.9 0.00 0.00 0.00 87 1008.5
20260506172813 63 181 0.9 0.9 0.00 0.00 0.00 86 1008.7
20260506172309 63 355 0.0 0.9 0.00 0.00 0.00 84 1008.8
20260506171807 64 215 2.6 2.6 0.00 0.00 0.00 82 1008.7
20260506171303 65 5 1.7 1.7 0.00 0.00 0.00 80 1008.7
20260506170801 66 139 2.6 2.6 0.00 0.00 0.00 78 1008.7
20260506170257 66 22 2.6 4.3 0.00 0.00 0.00 76 1008.5
20260506165756 67 193 2.6 2.6 0.00 0.00 0.00 75 1008.6
20260506165253 67 195 1.7 4.3 0.00 0.00 0.00 74 1008.7
20260506164750 68 165 1.7 2.6 0.00 0.00 0.00 74 1008.3
20260506164246 67 125 6.1 7.0 0.00 0.00 0.00 74 1008.5
20260506163744 68 203 5.2 7.0 0.00 0.00 0.00 73 1008.3
20260506163238 68 119 9.6 12.2 0.00 0.00 0.00 73 1008.3
20260506162734 68 177 3.5 5.2 0.00 0.00 0.00 72 1008.4
20260506162232 67 148 3.5 4.3 0.00 0.00 0.00 74 1008.4
20260506161724 68 183 0.9 1.7 0.00 0.00 0.00 73 1008.5
20260506161221 68 281 1.7 1.7 0.00 0.00 0.00 73 1008.6
20260506160718 68 27 0.9 0.9 0.00 0.00 0.00 73 1008.8
20260506160215 68 256 2.6 2.6 0.00 0.00 0.00 72 1008.8
20260506155713 68 167 6.1 8.7 0.00 0.00 0.00 71 1008.8
20260506155210 68 175 1.7 1.7 0.00 0.00 0.00 71 1008.6
20260506153312 68 185 1.7 1.7 0.00 0.00 0.00 71 1008.8
20260506152809 68 193 2.6 4.3 0.00 0.00 0.00 71 1009.0
20260506152306 69 183 1.7 2.6 0.00 0.00 0.00 70 1008.9
20260506151805 69 244 3.5 5.2 0.00 0.00 0.00 70 1008.9
20260506151301 69 139 1.7 1.7 0.00 0.00 0.00 71 1009.1
20260506150758 69 292 2.6 4.3 0.00 0.00 0.00 72 1009.2
20260506150303 68 167 4.3 6.1 0.00 0.00 0.00 71 1009.2
20260506145752 68 243 4.3 6.1 0.00 0.00 0.00 72 1009.2
20260506145248 68 253 0.9 0.9 0.00 0.00 0.00 73 1009.3
20260506144746 69 133 4.3 7.0 0.00 0.00 0.00 71 1009.2
20260506144243 69 178 2.6 6.1 0.00 0.00 0.00 72 1009.2
20260506143740 68 209 2.6 4.3 0.00 0.00 0.00 73 1009.2
20260506143237 68 226 4.3 6.1 0.00 0.00 0.00 73 1009.6
20260506142736 67 257 2.6 2.6 0.00 0.00 0.00 75 1009.4
20260506142233 66 253 3.5 5.2 0.00 0.00 0.00 76 1009.3
20260506141731 66 165 2.6 5.2 0.00 0.00 0.00 77 1009.6
20260506141229 65 165 3.5 4.3 0.00 0.00 0.00 78 1009.5
20260506140727 66 171 4.3 5.2 0.00 0.00 0.00 78 1009.3
20260506140223 66 259 3.5 4.3 0.00 0.00 0.00 78 1009.4
20260506135720 66 201 1.7 1.7 0.00 0.00 0.00 78 1009.4
20260506135216 66 219 2.6 2.6 0.00 0.00 0.00 78 1009.3
20260506134714 66 175 1.7 2.6 0.00 0.00 0.00 79 1009.0
20260506134209 66 207 0.9 0.9 0.00 0.00 0.00 79 1009.2
20260506133707 65 209 1.7 2.6 0.00 0.00 0.00 79 1009.3
20260506133203 65 194 2.6 2.6 0.00 0.00 0.00 81 1009.3
20260506132701 65 317 3.5 7.0 0.00 0.00 0.00 81 1009.2
20260506132157 65 168 2.6 2.6 0.00 0.00 0.00 81 1009.4
20260506131655 64 197 3.5 4.3 0.00 0.00 0.00 82 1009.6
20260506131151 64 172 4.3 7.8 0.00 0.00 0.00 82 1009.7
20260506130648 63 196 3.5 6.1 0.00 0.00 0.00 84 1009.6
20260506130146 63 196 0.9 0.9 0.00 0.00 0.00 85 1009.8
20260506125644 63 218 1.7 2.6 0.00 0.00 0.00 85 1009.7
20260506125141 63 155 4.3 7.0 0.00 0.00 0.00 85 1009.8
20260506124639 63 267 1.7 2.6 0.00 0.00 0.00 86 1009.7
20260506124136 62 209 0.0 0.9 0.00 0.00 0.00 86 1010.0
20260506123634 62 221 2.6 2.6 0.00 0.00 0.00 87 1009.8
20260506123132 62 161 0.9 1.7 0.00 0.00 0.00 88 1009.8
20260506122629 61 102 0.9 1.7 0.00 0.00 0.00 88 1009.7
20260506122126 61 229 3.5 5.2 0.00 0.00 0.00 88 1009.8
20260506121624 61 147 2.6 4.3 0.00 0.00 0.00 90 1010.1
20260506121120 60 126 0.0 0.9 0.00 0.00 0.00 90 1009.8
20260506120618 60 165 2.6 2.6 0.00 0.00 0.00 91 1010.0
20260506120115 60 184 2.6 2.6 0.00 0.00 0.00 91 1009.8
20260506115614 59 210 0.0 0.9 0.00 0.00 0.00 92 1010.2
20260506115112 59 258 1.7 2.6 0.00 0.00 0.00 92 1010.0
20260506114608 59 131 1.7 2.6 0.00 0.00 0.00 92 1009.6
20260506114107 59 124 2.6 5.2 0.00 0.00 0.00 93 1009.6
20260506113604 58 160 0.0 0.0 0.00 0.00 0.00 94 1010.0
20260506113101 58 251 0.9 2.6 0.00 0.00 0.00 94 1010.2
20260506112558 57 162 2.6 2.6 0.00 0.00 0.00 95 1010.2
20260506112055 57 172 2.6 4.3 0.00 0.00 0.00 96 1010.3
20260506111553 56 213 0.9 0.9 0.00 0.00 0.00 96 1010.5
20260506111050 56 148 0.9 0.9 0.00 0.00 0.00 96 1010.4
20260506110548 56 217 0.9 1.7 0.00 0.00 0.00 96 1010.5
20260506110045 56 182 1.7 1.7 0.00 0.00 0.00 96 1010.5
20260506105541 56 143 4.3 6.1 0.00 0.00 0.00 96 1010.4
20260506105039 56 173 0.9 0.9 0.00 0.00 0.00 97 1010.1
20260506104536 55 140 1.7 1.7 0.00 0.00 0.00 97 1010.0
20260506104034 55 129 0.0 0.0 0.00 0.00 0.00 97 1010.0
20260506103531 55 138 0.0 0.9 0.00 0.00 0.00 97 1010.1
20260506103027 55 131 0.9 1.7 0.00 0.00 0.00 97 1010.2
20260506102526 55 133 0.0 0.9 0.00 0.00 0.00 97 1010.1
20260506102023 54 171 0.0 0.9 0.00 0.00 0.00 97 1010.1
20260506101519 54 128 1.7 1.7 0.00 0.00 0.00 97 1010.1
20260506101017 55 221 0.0 0.0 0.00 0.00 0.00 97 1010.1
20260506100515 54 137 0.0 0.0 0.00 0.00 0.00 97 1010.2
20260506100013 55 175 0.0 0.0 0.00 0.00 0.00 97 1010.0